Weather History for LFMC - March, 2013

Change the Weather History Date:

Wednesday, March 20, 2013

  Actual Average (LFTH) Record (LFTH)
Temperature  
Mean Temperature 52 °F -  
Max Temperature 62 °F 61 °F 75 °F (2002)
Min Temperature 42 °F 46 °F 37 °F (2003)
Degree Days  
Heating Degree Days 13    
Growing Degree Days 2 (Base 50)    
Moisture  
Dew Point 36 °F    
Average Humidity 66    
Maximum Humidity 93    
Minimum Humidity 31    
Precipitation  
Precipitation 0.00 in - - ()
Sea Level Pressure  
Sea Level Pressure 29.71 in    
Wind  
Wind Speed 4 mph ()    
Max Wind Speed 17 mph    
Max Gust Speed -    
Visibility 5.6 miles    
Events Rain    
Averages and records for this station are not official NWS values.
T = Trace of Precipitation, MM = Missing Value Source: Averaged Metar Reports

Daily Weather History Graph

Daily Weather History Graph

Search for Another Location

Airport or City:

Trip Planner

Search our weather history database for the weather conditions in past years. The results will help you decide how hot, cold, wet, or windy it might be!

Date:

Astronomy

Mar. 20, 2013 Rise Set
Actual Time 6:37 AM CET 6:46 PM CET
Civil Twilight 6:09 AM CET 7:15 PM CET
Nautical Twilight 5:35 AM CET 7:48 PM CET
Astronomical Twilight 5:01 AM CET 8:22 PM CET
Moon 11:58 AM CET (3/20) 2:14 AM CET (3/20)
Length of Visible Light 13h 06m
Length of Day
12h 09m
First Quarter, 57% of the Moon is Illuminated
Mar 20
First Quarter
Mar 27
Full
Apr 3
Last Quarter
Apr 10
New
Apr 18
First Quarter

Hourly Weather History & Observations

Time (CET) Temp. Windchill Dew Point Humidity Pressure Visibility Wind Dir Wind Speed Gust Speed Precip Events Conditions
12:00 AM 42.8 °F - 35.6 °F 76% 29.68 in 6.2 mi Calm Calm - N/A   Unknown
12:30 AM 42.8 °F 41.1 °F 35.6 °F 76% 29.68 in 6.2 mi Variable 3.5 mph - N/A   Unknown
1:00 AM 42.8 °F - 35.6 °F 76% 29.68 in 6.2 mi Calm Calm - N/A   Partly Cloudy
1:30 AM 42.8 °F - 35.6 °F 76% 29.68 in 6.2 mi Variable 1.2 mph - N/A   Scattered Clouds
2:00 AM 42.8 °F - 37.4 °F 81% 29.68 in 6.2 mi North 2.3 mph - N/A   Mostly Cloudy
2:30 AM 42.8 °F - 35.6 °F 76% 29.65 in 6.2 mi Variable 2.3 mph - N/A   Mostly Cloudy
3:00 AM 42.8 °F 41.1 °F 35.6 °F 76% 29.65 in 6.2 mi Variable 3.5 mph - N/A   Scattered Clouds
3:30 AM 42.8 °F - 35.6 °F 76% 29.62 in 6.2 mi Calm Calm - N/A   Mostly Cloudy
4:00 AM 42.8 °F 41.1 °F 37.4 °F 81% 29.62 in 6.2 mi West 3.5 mph - N/A   Overcast
4:30 AM 42.8 °F - 37.4 °F 81% 29.62 in 6.2 mi Variable 1.2 mph - N/A   Overcast
5:00 AM 42.8 °F 41.1 °F 37.4 °F 81% 29.62 in 6.2 mi Variable 3.5 mph - N/A Rain Light Rain
5:30 AM 42.8 °F 41.1 °F 39.2 °F 87% 29.62 in 6.2 mi NW 3.5 mph - N/A Rain Light Rain
6:00 AM 42.8 °F - 41.0 °F 93% 29.62 in 4.3 mi Variable 2.3 mph - N/A Rain Rain
6:30 AM 42.8 °F 41.1 °F 41.0 °F 93% 29.65 in 3.7 mi ENE 3.5 mph - N/A Rain Rain
7:00 AM 42.8 °F 39.3 °F 41.0 °F 93% 29.65 in 3.7 mi East 5.8 mph - N/A Rain Light Rain
8:00 AM 44.6 °F - 41.0 °F 87% 29.65 in 3.7 mi Variable 2.3 mph - N/A Rain Light Rain
9:00 AM 44.6 °F 43.1 °F 41.0 °F 87% 29.68 in 3.7 mi NNE 3.5 mph - N/A Rain Light Rain
10:00 AM 44.6 °F - 41.0 °F 87% 29.68 in 3.7 mi Calm Calm - N/A Rain Light Rain
11:00 AM 46.4 °F 45.2 °F 42.8 °F 87% 29.71 in 3.7 mi SW 3.5 mph - N/A Rain Light Rain
12:00 PM 48.2 °F - 46.4 °F 93% 29.71 in 5.0 mi Variable 1.2 mph - N/A Rain Light Rain
1:00 PM 53.6 °F - 46.4 °F 77% 29.68 in 5.0 mi Variable 3.5 mph - N/A   Scattered Clouds
2:00 PM 55.4 °F - 46.4 °F 72% 29.68 in 5.0 mi West 4.6 mph - N/A   Scattered Clouds
3:00 PM 60.8 °F - 41.0 °F 48% 29.68 in 6.2 mi West 17.3 mph - N/A   Scattered Clouds
4:00 PM 60.8 °F - 39.2 °F 45% 29.68 in 6.2 mi WNW 11.5 mph - N/A   Scattered Clouds
5:00 PM 62.6 °F - 33.8 °F 34% 29.68 in 6.2 mi NW 10.4 mph - N/A   Partly Cloudy
6:00 PM 60.8 °F - 30.2 °F 31% 29.71 in 6.2 mi WNW 13.8 mph - N/A   Partly Cloudy
7:00 PM 55.4 °F - 28.4 °F 36% 29.77 in 6.2 mi WNW 10.4 mph - N/A   Partly Cloudy
7:30 PM 55.4 °F - 26.6 °F 33% 29.77 in 6.2 mi West 8.1 mph - N/A   Unknown
8:00 PM 53.6 °F - 28.4 °F 38% 29.80 in 6.2 mi WNW 10.4 mph - N/A   Unknown
8:30 PM 53.6 °F - 28.4 °F 38% 29.83 in 6.2 mi WNW 9.2 mph - N/A   Unknown
9:00 PM 51.8 °F - 26.6 °F 38% 29.83 in 6.2 mi WNW 6.9 mph - N/A   Unknown
9:30 PM 50.0 °F - 28.4 °F 43% 29.86 in 6.2 mi SW 3.5 mph - N/A   Unknown
10:00 PM 50.0 °F - 28.4 °F 43% 29.86 in 6.2 mi West 4.6 mph - N/A   Unknown
10:30 PM 46.4 °F 44.3 °F 30.2 °F 53% 29.89 in 6.2 mi West 4.6 mph - N/A   Unknown
11:00 PM 48.2 °F - 26.6 °F 43% 29.89 in 6.2 mi West 8.1 mph - N/A   Unknown
11:30 PM 50.0 °F - 26.6 °F 40% 29.89 in 6.2 mi West 10.4 mph - N/A   Unknown